Home   Weather   Nzérékoré   Past weeks

Flag for Guinea Past Weather in Nzérékoré, Guinea — Yesterday and Last 2 Weeks

Now
86 °F

Passing clouds.


Feels Like: 99 °F
Forecast: N/A
Wind: 9 mph from Southwest

Location: Roberts Field

Current Time: Apr 30, 2017 at 6:57:37 pm

Latest Report: Apr 30, 2017 at 6:00 pm


Visibility: N/A

Pressure: 29.80 "Hg

Humidity: 79%

Dew Point: 79 °F

Location of NzérékoréLocation

Past Weather in Nzérékoré — Graph

°F

Nzérékoré Temperature Yesterday

Maximum temperature yesterday: 90 °F (at 1:30 pm)
Minimum temperature yesterday: 73 °F (at 1:00 am)
Average temperature yesterday: 81 °F

High & Low Weather Summary for the Past Weeks

 TemperatureHumidityPressure
High91 °F (Apr 16, 12:00 pm)100% (Apr 21, 5:00 am)29.95 "Hg (Apr 21, 5:00 am)
Low73 °F (Apr 20, 5:30 am)59% (Apr 27, 12:00 pm)29.74 "Hg (Apr 16, 4:00 pm)
Average83 °F84%29.85 "Hg
* Reported Apr 15 5:00 pm — Apr 30 5:30 pm, Nzérékoré, Weather by CustomWeather, © 2017

Note: Actual official high and low records may vary slightly from our data, if they occured in-between our weather recording intervals... More about our weather records

Advertising

Nzérékoré Weather History for the Previous 24 Hours

Scroll right to see more
 ConditionsComfort  
Time TempWeatherWind HumidityBarometerVisibility
5:30 pm
Sun, Apr 30
88 °FPassing clouds.9 mph75%29.80 "HgN/A
5:00 pm88 °FPassing clouds.10 mph70%29.80 "HgN/A
4:30 pm88 °FPassing clouds.13 mph70%29.80 "HgN/A
4:00 pm88 °FScattered clouds.12 mph70%29.80 "HgN/A
3:30 pm90 °FScattered clouds.9 mph71%29.80 "HgN/A
3:00 pm88 °FScattered clouds.15 mph70%29.80 "HgN/A
2:30 pm90 °FPartly sunny.12 mph71%29.83 "HgN/A
1:30 pm90 °FPartly sunny.12 mph67%29.86 "HgN/A
1:00 pm91 °FPartly sunny.13 mph63%29.86 "HgN/A
12:30 pm91 °FHot.No wind63%29.86 "HgN/A
12:00 pm91 °FHot.No wind63%29.89 "HgN/A
11:30 am90 °FHot.No wind67%29.89 "HgN/A
11:00 am90 °FHot.No wind67%29.92 "HgN/A
10:30 am90 °FPassing clouds.No wind67%29.92 "HgN/A
10:00 am88 °FPassing clouds.No wind75%29.92 "HgN/A
9:30 am86 °FPassing clouds.No wind79%29.92 "HgN/A
9:00 am82 °FPassing clouds.No wind89%29.92 "HgN/A
8:30 am82 °FPassing clouds.No wind89%29.92 "HgN/A
8:00 am81 °FPassing clouds.No wind89%29.92 "HgN/A
7:30 am79 °FScattered clouds.No wind94%29.89 "HgN/A
7:00 am77 °FPassing clouds.No wind94%29.89 "HgN/A
6:30 am77 °FPassing clouds.No wind94%29.89 "HgN/A
6:00 am77 °FPassing clouds.No wind94%29.86 "Hg5 mi
5:00 am77 °FPassing clouds.No wind94%29.86 "Hg5 mi
4:00 am77 °FPassing clouds.12 mph94%29.86 "Hg5 mi
1:30 am79 °FPassing clouds.No wind94%29.86 "HgN/A
11:30 pm
Sat, Apr 29
79 °FPassing clouds.No wind94%29.92 "HgN/A
11:00 pm81 °FPassing clouds.No wind89%29.92 "HgN/A
10:30 pm81 °FPassing clouds.No wind89%29.92 "HgN/A
10:00 pm81 °FPassing clouds.No wind89%29.92 "HgN/A
9:00 pm81 °FPassing clouds.No wind89%29.92 "HgN/A
8:30 pm81 °FPassing clouds.No wind89%29.92 "HgN/A
7:30 pm81 °FScattered clouds.No wind89%29.89 "HgN/A
7:00 pm82 °FThunderstorms. Scattered clouds.No wind84%29.86 "HgN/A
6:30 pm84 °FThunderstorms. Scattered clouds.6 mph79%29.86 "HgN/A
6:00 pm84 °FThunderstorms. Scattered clouds.No wind79%29.86 "HgN/A
Weather by CustomWeather, © 2017

See weather overviewHow to use our weather pages